Printer-friendly version
Follow the MPC on Twitter Follow the MPC on Facebook The MPC blog
Minor Planet Center

MPEC 2009-F101: 2009 FR32

The following Minor Planet Electronic Circular may be linked-to from your own Web pages, but must not otherwise be redistributed electronically.

A form allowing access to any MPEC is at the bottom of this page.


Read MPEC 2009-F100 Read MPEC 2009-F102


M.P.E.C. 2009-F101                               Issued 2009 Mar. 30, 15:26 UT

     The Minor Planet Electronic Circulars contain information on unusual
         minor planets and routine data on comets.  They are published
   on behalf of Commission 20 of the International Astronomical Union by the
          Minor Planet Center, Smithsonian Astrophysical Observatory,
                          Cambridge, MA 02138, U.S.A.

             Prepared using the Tamkin Foundation Computer Network

                              MPC@CFA.HARVARD.EDU
          URL http://www.cfa.harvard.edu/iau/mpc.html  ISSN 1523-6714

                                   2009 FR32

Observations:
     K09F32R* C2009 03 29.26601 11 20 44.48 -02 42 39.6          20.6 V EF101G96
     K09F32R  C2009 03 29.27354 11 20 45.81 -02 43 23.0          20.9 V EF101G96
     K09F32R  C2009 03 29.28108 11 20 47.14 -02 44 06.4          20.3 V EF101G96
     K09F32R  C2009 03 29.28862 11 20 48.48 -02 44 49.8          20.1 V EF101G96
     K09F32R  C2009 03 29.33294 11 20 56.43 -02 49 04.8          20.8 V EF101G96
     K09F32R  C2009 03 29.33344 11 20 56.43 -02 49 08.1          20.9 V EF101G96
     K09F32R  C2009 03 29.33406 11 20 56.61 -02 49 11.6          21.4 V EF101G96
     K09F32R  C2009 03 29.33469 11 20 56.72 -02 49 14.8          21.0 V EF101G96
     K09F32R  C2009 03 29.34321 11 20 57.99 -02 50 06.0          19.4 R EF101H01
     K09F32R  C2009 03 29.35013 11 20 59.28 -02 50 45.8          19.9 R EF101H01
     K09F32R  C2009 03 29.35636 11 21 00.45 -02 51 21.5          19.8 R EF101H01
     K09F32R  C2009 03 29.36265 11 21 01.64 -02 51 57.7          20.4 R EF101H01
     K09F32R  C2009 03 29.92474 11 23 11.92 -03 47 10.3                 EF101J95
     K09F32R  C2009 03 29.93661 11 23 14.28 -03 48 22.1          20.2 R EF101J95
     K09F32R  C2009 03 30.22494811 24 18.47 -04 16 44.6          20.1 V EF101H55
     K09F32R  C2009 03 30.22910811 24 19.27 -04 17 09.7          19.9 V EF101H55
     K09F32R  C2009 03 30.23285011 24 20.05 -04 17 32.5          20.2 V EF101H55

Observer details:
G96 Mt. Lemmon Survey.  Observer A. Boattini.  Measurers E. C. Beshore,
    A. Boattini, G. J. Garradd, A. R. Gibbs, A. D. Grauer, R. E. Hill,
    R. A. Kowalski, S. M. Larson, R. H. McNaught.  1.5-m reflector + CCD.
H01 Magdalena Ridge Observatory, Socorro.  Observer W. H. Ryan.  2.4-m f/8.9
    reflector + CCD.
H55 Astronomical Research Observatory, Charleston.  Observer R. Holmes.
    Measurer S. Foglia.
J95 Great Shefford.  Observer P. Birtwhistle.  0.40-m f/6.0 Schmidt-Cassegrain
    + CCD.

Orbital elements:
2009 FR32                                                Earth MOID = 0.0644 AU
Epoch 2009 June 18.0 TT = JDT 2455000.5                 MPC
M  28.15607              (2000.0)            P               Q
n   0.41437921     Peri.  200.50706     -0.93344103     +0.35873039
a   1.7818484      Node     0.51629     -0.31937487     -0.83028718
e   0.4039303      Incl.    3.73862     -0.16336318     -0.42653922
P   2.38           H   25.1           G   0.15           U   8
Residuals in seconds of arc
090329 G96  0.4-  0.1+    090329 G96  0.1-  0.5-    090329 J95  0.1+  0.9+
090329 G96  0.4-  0.0     090329 G96  0.1-  0.1-    090329 J95  0.6+  0.5-
090329 G96  0.4-  0.1-    090329 H01  0.1+  0.1+    090330 H55  1.1-  0.2-
090329 G96  0.2-  0.1-    090329 H01  0.3+  0.1+    090330 H55  1.1-  0.4-
090329 G96  0.3+  0.2-    090329 H01  0.5+  0.3+    090330 H55  0.2-  0.7-
090329 G96  1.1-  0.6-    090329 H01  0.7+  0.3+

Ephemeris:
2009 FR32                a,e,i = 1.78, 0.40, 4                   q = 1.0621
Date    TT    R. A. (2000) Decl.     Delta      r     Elong.  Phase     V
2009 03 30    11 23.46   -03 52.9    0.0742   1.070   162.4    16.4    20.5
2009 04 09    12 14.69   -23 05.1    0.0646   1.062   159.4    19.4    20.3
2009 04 19    13 32.37   -40 51.0    0.0698   1.065   150.1    28.1    20.7
2009 04 29    14 55.18   -49 16.1    0.0867   1.079   144.6    32.7    21.3
2009 05 09    15 54.86   -50 41.0    0.111    1.102   145.1    31.6    21.9

Sonia Keys                   (C) Copyright 2009 MPC           M.P.E.C. 2009-F101

Read MPEC 2009-F100 Read MPEC 2009-F102


MPEC number:

Enter an MPEC number in one of the following forms:

  • 1997-B01 (the full form)
  • J97B01 (the packed version of the full form)
  • B01 (the abbreviated form)

Valid HTML 4.01!